Ny info om parkering ved Klubbhytta PDF Skriv ut E-post
Skrevet av Per Norgaard   
torsdag 17. desember 2015 11:11

Styret i klubben ønsker å korrigere/presisere følgende: All parkering ved Klubbhytta skal kun skje ifm klubbaktivitet. Avinor vil ikke akseptere privat parkering som ikke er klubbrelatert. Misbruk vil utløse bøter, og kan medføre oppsigelse av leieforholdet.

 

 
«StartForrige12345678NesteSiste»

Side 8 av 8
 
METAR
2020/08/07 04:20 ENCN 070420Z 06004KT 9999 BKN049 16/15 Q1022
TAF
2020/08/07 03:37 TAF ENCN 070200Z 0703/0712 05005KT 9999 BKN045
LN-KFK
Operativ VFR-natt
VFR dag
04:43 - 22:22
Brannvakt
Inaktiv
Banner
Banner
Banner
Banner
Banner